owner,sensor,date,latitude,longitude,vertical_datum,wind_speed,wind_to_direction,wind_speed_of_gust,qcFlag 
WAVCIS,ioos:station:WAVCIS:CSI09:1,2015-09-01T00:00:00Z,29.1015,-89.9782,0.0,1.91,96.0,,'11111222,11111222,99999999' 
WAVCIS,ioos:station:WAVCIS:CSI09:1,2015-09-01T01:00:00Z,29.1015,-89.9782,0.0,1.805,82.0,,'11111222,11111222,99999999' 
WAVCIS,ioos:station:WAVCIS:CSI09:1,2015-09-01T02:00:00Z,29.1015,-89.9782,0.0,2.356,104.0,,'11111222,11111222,99999999' 
WAVCIS,ioos:station:WAVCIS:CSI09:1,2015-09-01T03:00:00Z,29.1015,-89.9782,0.0,2.804,113.0,,'11111222,11111222,99999999' 
WAVCIS,ioos:station:WAVCIS:CSI09:1,2015-09-01T04:00:00Z,29.1015,-89.9782,0.0,3.602,135.0,,'11111222,11111222,99999999' 
WAVCIS,ioos:station:WAVCIS:CSI09:1,2015-09-01T05:00:00Z,29.1015,-89.9782,0.0,3.641,123.0,,'11111222,11111222,99999999' 
WAVCIS,ioos:station:WAVCIS:CSI09:1,2015-09-01T06:00:00Z,29.1015,-89.9782,0.0,3.485,131.0,,'11111222,11111222,99999999' 
WAVCIS,ioos:station:WAVCIS:CSI09:1,2015-09-01T07:00:00Z,29.1015,-89.9782,0.0,3.682,136.0,,'11111222,11111222,99999999' 
WAVCIS,ioos:station:WAVCIS:CSI09:1,2015-09-01T08:00:00Z,29.1015,-89.9782,0.0,2.773,155.0,,'11111222,11111222,99999999' 
WAVCIS,ioos:station:WAVCIS:CSI09:1,2015-09-01T09:00:00Z,29.1015,-89.9782,0.0,1.874,190.0,,'11111222,11111222,99999999' 
WAVCIS,ioos:station:WAVCIS:CSI09:1,2015-09-01T10:00:00Z,29.1015,-89.9782,0.0,1.12,157.0,,'11111222,11111222,99999999' 
WAVCIS,ioos:station:WAVCIS:CSI09:1,2015-09-01T11:00:00Z,29.1015,-89.9782,0.0,1.176,103.0,,'11111222,11111222,99999999' 
WAVCIS,ioos:station:WAVCIS:CSI09:1,2015-09-01T12:00:00Z,29.1015,-89.9782,0.0,3.605,88.0,,'11111222,11111222,99999999' 
WAVCIS,ioos:station:WAVCIS:CSI09:1,2015-09-01T13:00:00Z,29.1015,-89.9782,0.0,3.069,105.0,,'11111222,11111222,99999999' 
WAVCIS,ioos:station:WAVCIS:CSI09:1,2015-09-01T14:00:00Z,29.1015,-89.9782,0.0,0.984,112.0,,'11111222,11111222,99999999' 
WAVCIS,ioos:station:WAVCIS:CSI09:1,2015-09-01T15:00:00Z,29.1015,-89.9782,0.0,1.088,126.0,,'11111222,11111222,99999999' 
WAVCIS,ioos:station:WAVCIS:CSI09:1,2015-09-01T16:00:00Z,29.1015,-89.9782,0.0,1.414,113.0,,'11111222,11111222,99999999' 
WAVCIS,ioos:station:WAVCIS:CSI09:1,2015-09-01T17:00:00Z,29.1015,-89.9782,0.0,2.872,100.0,,'11111222,11111222,99999999' 
WAVCIS,ioos:station:WAVCIS:CSI09:1,2015-09-01T18:00:00Z,29.1015,-89.9782,0.0,3.008,97.0,,'11111222,11111222,99999999' 
WAVCIS,ioos:station:WAVCIS:CSI09:1,2015-09-01T19:00:00Z,29.1015,-89.9782,0.0,3.673,107.0,,'11111222,11111222,99999999' 
WAVCIS,ioos:station:WAVCIS:CSI09:1,2015-09-01T20:00:00Z,29.1015,-89.9782,0.0,2.931,103.0,,'11111222,11111222,99999999' 
WAVCIS,ioos:station:WAVCIS:CSI09:1,2015-09-01T21:00:00Z,29.1015,-89.9782,0.0,3.108,108.0,,'11111222,11111222,99999999' 
WAVCIS,ioos:station:WAVCIS:CSI09:1,2015-09-01T22:00:00Z,29.1015,-89.9782,0.0,3.35,99.0,,'11111222,11111222,99999999' 
WAVCIS,ioos:station:WAVCIS:CSI09:1,2015-09-01T23:00:00Z,29.1015,-89.9782,0.0,3.478,98.0,,'11111222,11111222,99999999' 
WAVCIS,ioos:station:WAVCIS:CSI09:1,2015-09-02T00:00:00Z,29.1015,-89.9782,0.0,3.678,99.0,,'11111222,11111222,99999999' 
WAVCIS,ioos:station:WAVCIS:CSI09:1,2015-09-02T01:00:00Z,29.1015,-89.9782,0.0,4.535,88.0,,'11111222,11111222,99999999' 
WAVCIS,ioos:station:WAVCIS:CSI09:1,2015-09-02T02:00:00Z,29.1015,-89.9782,0.0,3.884,114.0,,'11111222,11111222,99999999' 
WAVCIS,ioos:station:WAVCIS:CSI09:1,2015-09-02T03:00:00Z,29.1015,-89.9782,0.0,4.317,129.0,,'11111222,11111222,99999999' 
WAVCIS,ioos:station:WAVCIS:CSI09:1,2015-09-02T04:00:00Z,29.1015,-89.9782,0.0,3.792,158.0,,'11111222,11111222,99999999' 
WAVCIS,ioos:station:WAVCIS:CSI09:1,2015-09-02T05:00:00Z,29.1015,-89.9782,0.0,3.402,150.0,,'11111222,11111222,99999999' 
WAVCIS,ioos:station:WAVCIS:CSI09:1,2015-09-02T06:00:00Z,29.1015,-89.9782,0.0,2.378,157.0,,'11111222,11111222,99999999' 
WAVCIS,ioos:station:WAVCIS:CSI09:1,2015-09-02T07:00:00Z,29.1015,-89.9782,0.0,1.926,125.0,,'11111222,11111222,99999999' 
WAVCIS,ioos:station:WAVCIS:CSI09:1,2015-09-02T08:00:00Z,29.1015,-89.9782,0.0,2.253,126.0,,'11111222,11111222,99999999' 
WAVCIS,ioos:station:WAVCIS:CSI09:1,2015-09-02T09:00:00Z,29.1015,-89.9782,0.0,1.971,109.0,,'11111222,11111222,99999999' 
WAVCIS,ioos:station:WAVCIS:CSI09:1,2015-09-02T10:00:00Z,29.1015,-89.9782,0.0,2.667,92.0,,'11111222,11111222,99999999' 
WAVCIS,ioos:station:WAVCIS:CSI09:1,2015-09-02T11:00:00Z,29.1015,-89.9782,0.0,5.433,84.0,,'11111222,11111222,99999999' 
WAVCIS,ioos:station:WAVCIS:CSI09:1,2015-09-02T12:00:00Z,29.1015,-89.9782,0.0,4.369,97.0,,'11111222,11111222,99999999' 
WAVCIS,ioos:station:WAVCIS:CSI09:1,2015-09-02T13:00:00Z,29.1015,-89.9782,0.0,5.459,90.0,,'11111222,11111222,99999999' 
WAVCIS,ioos:station:WAVCIS:CSI09:1,2015-09-02T14:00:00Z,29.1015,-89.9782,0.0,6.89,95.0,,'11111222,11111222,99999999' 
WAVCIS,ioos:station:WAVCIS:CSI09:1,2015-09-02T15:00:00Z,29.1015,-89.9782,0.0,7.14,111.0,,'11111222,11111222,99999999' 
WAVCIS,ioos:station:WAVCIS:CSI09:1,2015-09-02T16:00:00Z,29.1015,-89.9782,0.0,6.958,91.0,,'11111222,11111222,99999999' 
WAVCIS,ioos:station:WAVCIS:CSI09:1,2015-09-02T17:00:00Z,29.1015,-89.9782,0.0,4.087,86.0,,'11111222,11111222,99999999' 
WAVCIS,ioos:station:WAVCIS:CSI09:1,2015-09-02T18:00:00Z,29.1015,-89.9782,0.0,3.467,91.0,,'11111222,11111222,99999999' 
WAVCIS,ioos:station:WAVCIS:CSI09:1,2015-09-02T19:00:00Z,29.1015,-89.9782,0.0,7.62,229.0,,'11111222,11111222,99999999' 
WAVCIS,ioos:station:WAVCIS:CSI09:1,2015-09-02T20:00:00Z,29.1015,-89.9782,0.0,1.247,280.0,,'11111222,11111222,99999999' 
WAVCIS,ioos:station:WAVCIS:CSI09:1,2015-09-02T21:00:00Z,29.1015,-89.9782,0.0,0.955,43.0,,'11111222,11111222,99999999' 
WAVCIS,ioos:station:WAVCIS:CSI09:1,2015-09-02T22:00:00Z,29.1015,-89.9782,0.0,2.032,96.0,,'11111222,11111222,99999999' 
WAVCIS,ioos:station:WAVCIS:CSI09:1,2015-09-02T23:00:00Z,29.1015,-89.9782,0.0,3.372,92.0,,'11111222,11111222,99999999' 
WAVCIS,ioos:station:WAVCIS:CSI09:1,2015-09-03T00:00:00Z,29.1015,-89.9782,0.0,2.851,102.0,,'11111222,11111222,99999999' 
WAVCIS,ioos:station:WAVCIS:CSI09:1,2015-09-03T01:00:00Z,29.1015,-89.9782,0.0,2.853,105.0,,'11111222,11111222,99999999' 
WAVCIS,ioos:station:WAVCIS:CSI09:1,2015-09-03T02:00:00Z,29.1015,-89.9782,0.0,4.022,121.0,,'11111222,11111222,99999999' 
WAVCIS,ioos:station:WAVCIS:CSI09:1,2015-09-03T03:00:00Z,29.1015,-89.9782,0.0,3.683,115.0,,'11111222,11111222,99999999' 
WAVCIS,ioos:station:WAVCIS:CSI09:1,2015-09-03T04:00:00Z,29.1015,-89.9782,0.0,3.761,130.0,,'11111222,11111222,99999999' 
WAVCIS,ioos:station:WAVCIS:CSI09:1,2015-09-03T05:00:00Z,29.1015,-89.9782,0.0,4.072,129.0,,'11111222,11111222,99999999' 
WAVCIS,ioos:station:WAVCIS:CSI09:1,2015-09-03T06:00:00Z,29.1015,-89.9782,0.0,4.696,137.0,,'11111222,11111222,99999999' 
WAVCIS,ioos:station:WAVCIS:CSI09:1,2015-09-03T07:00:00Z,29.1015,-89.9782,0.0,3.853,138.0,,'11111222,11111222,99999999' 
WAVCIS,ioos:station:WAVCIS:CSI09:1,2015-09-03T08:00:00Z,29.1015,-89.9782,0.0,4.364,162.0,,'11111222,11111222,99999999' 
WAVCIS,ioos:station:WAVCIS:CSI09:1,2015-09-03T09:00:00Z,29.1015,-89.9782,0.0,4.75,171.0,,'11111222,11111222,99999999' 
WAVCIS,ioos:station:WAVCIS:CSI09:1,2015-09-03T10:00:00Z,29.1015,-89.9782,0.0,3.878,160.0,,'11111222,11111222,99999999' 
WAVCIS,ioos:station:WAVCIS:CSI09:1,2015-09-03T11:00:00Z,29.1015,-89.9782,0.0,5.235,163.0,,'11111222,11111222,99999999' 
WAVCIS,ioos:station:WAVCIS:CSI09:1,2015-09-03T12:00:00Z,29.1015,-89.9782,0.0,5.677,176.0,,'11111222,11111222,99999999' 
WAVCIS,ioos:station:WAVCIS:CSI09:1,2015-09-03T13:00:00Z,29.1015,-89.9782,0.0,5.844,212.0,,'11111222,11111222,99999999' 
WAVCIS,ioos:station:WAVCIS:CSI09:1,2015-09-03T14:00:00Z,29.1015,-89.9782,0.0,3.588,205.0,,'11111222,11111222,99999999' 
WAVCIS,ioos:station:WAVCIS:CSI09:1,2015-09-03T15:00:00Z,29.1015,-89.9782,0.0,7.27,181.0,,'11111222,11111222,99999999' 
WAVCIS,ioos:station:WAVCIS:CSI09:1,2015-09-03T16:00:00Z,29.1015,-89.9782,0.0,4.595,199.0,,'11111222,11111222,99999999' 
WAVCIS,ioos:station:WAVCIS:CSI09:1,2015-09-03T17:00:00Z,29.1015,-89.9782,0.0,3.329,210.0,,'11111222,11111222,99999999' 
WAVCIS,ioos:station:WAVCIS:CSI09:1,2015-09-03T18:00:00Z,29.1015,-89.9782,0.0,2.811,214.0,,'11111222,11111222,99999999' 
WAVCIS,ioos:station:WAVCIS:CSI09:1,2015-09-03T19:00:00Z,29.1015,-89.9782,0.0,2.861,193.0,,'11111222,11111222,99999999' 
WAVCIS,ioos:station:WAVCIS:CSI09:1,2015-09-03T20:00:00Z,29.1015,-89.9782,0.0,4.331,165.0,,'11111222,11111222,99999999' 
WAVCIS,ioos:station:WAVCIS:CSI09:1,2015-09-03T21:00:00Z,29.1015,-89.9782,0.0,5.292,167.0,,'11111222,11111222,99999999' 
WAVCIS,ioos:station:WAVCIS:CSI09:1,2015-09-03T22:00:00Z,29.1015,-89.9782,0.0,4.834,173.0,,'11111222,11111222,99999999' 
WAVCIS,ioos:station:WAVCIS:CSI09:1,2015-09-03T23:00:00Z,29.1015,-89.9782,0.0,3.947,172.0,,'11111222,11111222,99999999' 
WAVCIS,ioos:station:WAVCIS:CSI09:1,2015-09-04T00:00:00Z,29.1015,-89.9782,0.0,3.671,180.0,,'11111222,11111222,99999999' 
WAVCIS,ioos:station:WAVCIS:CSI09:1,2015-09-04T01:00:00Z,29.1015,-89.9782,0.0,3.701,172.0,,'11111222,11111222,99999999' 
WAVCIS,ioos:station:WAVCIS:CSI09:1,2015-09-04T02:00:00Z,29.1015,-89.9782,0.0,3.247,168.0,,'11111222,11111222,99999999' 
WAVCIS,ioos:station:WAVCIS:CSI09:1,2015-09-04T03:00:00Z,29.1015,-89.9782,0.0,4.492,170.0,,'11111222,11111222,99999999' 
WAVCIS,ioos:station:WAVCIS:CSI09:1,2015-09-04T04:00:00Z,29.1015,-89.9782,0.0,4.656,178.0,,'11111222,11111222,99999999' 
WAVCIS,ioos:station:WAVCIS:CSI09:1,2015-09-04T05:00:00Z,29.1015,-89.9782,0.0,5.181,167.0,,'11111222,11111222,99999999' 
WAVCIS,ioos:station:WAVCIS:CSI09:1,2015-09-04T06:00:00Z,29.1015,-89.9782,0.0,4.73,160.0,,'11111222,11111222,99999999' 
WAVCIS,ioos:station:WAVCIS:CSI09:1,2015-09-04T07:00:00Z,29.1015,-89.9782,0.0,3.921,166.0,,'11111222,11111222,99999999' 
WAVCIS,ioos:station:WAVCIS:CSI09:1,2015-09-04T08:00:00Z,29.1015,-89.9782,0.0,4.619,171.0,,'11111222,11111222,99999999' 
WAVCIS,ioos:station:WAVCIS:CSI09:1,2015-09-04T09:00:00Z,29.1015,-89.9782,0.0,2.614,175.0,,'11111222,11111222,99999999' 
WAVCIS,ioos:station:WAVCIS:CSI09:1,2015-09-04T10:00:00Z,29.1015,-89.9782,0.0,3.974,180.0,,'11111222,11111222,99999999' 
WAVCIS,ioos:station:WAVCIS:CSI09:1,2015-09-04T11:00:00Z,29.1015,-89.9782,0.0,2.892,191.0,,'11111222,11111222,99999999' 
WAVCIS,ioos:station:WAVCIS:CSI09:1,2015-09-04T12:00:00Z,29.1015,-89.9782,0.0,2.886,180.0,,'11111222,11111222,99999999' 
WAVCIS,ioos:station:WAVCIS:CSI09:1,2015-09-04T13:00:00Z,29.1015,-89.9782,0.0,3.136,168.0,,'11111222,11111222,99999999' 
WAVCIS,ioos:station:WAVCIS:CSI09:1,2015-09-04T14:00:00Z,29.1015,-89.9782,0.0,2.231,209.0,,'11111222,11111222,99999999' 
WAVCIS,ioos:station:WAVCIS:CSI09:1,2015-09-04T15:00:00Z,29.1015,-89.9782,0.0,3.833,180.0,,'11111222,11111222,99999999' 
WAVCIS,ioos:station:WAVCIS:CSI09:1,2015-09-04T16:00:00Z,29.1015,-89.9782,0.0,2.58,221.0,,'11111222,11111222,99999999' 
WAVCIS,ioos:station:WAVCIS:CSI09:1,2015-09-04T17:00:00Z,29.1015,-89.9782,0.0,4.105,237.0,,'11111222,11111222,99999999' 
WAVCIS,ioos:station:WAVCIS:CSI09:1,2015-09-04T18:00:00Z,29.1015,-89.9782,0.0,3.946,233.0,,'11111222,11111222,99999999' 
WAVCIS,ioos:station:WAVCIS:CSI09:1,2015-09-04T19:00:00Z,29.1015,-89.9782,0.0,3.71,223.0,,'11111222,11111222,99999999' 
WAVCIS,ioos:station:WAVCIS:CSI09:1,2015-09-04T20:00:00Z,29.1015,-89.9782,0.0,4.582,230.0,,'11111222,11111222,99999999' 
WAVCIS,ioos:station:WAVCIS:CSI09:1,2015-09-04T21:00:00Z,29.1015,-89.9782,0.0,5.589,244.0,,'11111222,11111222,99999999' 
WAVCIS,ioos:station:WAVCIS:CSI09:1,2015-09-04T22:00:00Z,29.1015,-89.9782,0.0,5.501,246.0,,'11111222,11111222,99999999' 
WAVCIS,ioos:station:WAVCIS:CSI09:1,2015-09-04T23:00:00Z,29.1015,-89.9782,0.0,3.461,250.0,,'11111222,11111222,99999999' 
WAVCIS,ioos:station:WAVCIS:CSI09:1,2015-09-05T00:00:00Z,29.1015,-89.9782,0.0,3.922,246.0,,'11111222,11111222,99999999' 
WAVCIS,ioos:station:WAVCIS:CSI09:1,2015-09-05T01:00:00Z,29.1015,-89.9782,0.0,4.447,236.0,,'11111222,11111222,99999999' 
WAVCIS,ioos:station:WAVCIS:CSI09:1,2015-09-05T02:00:00Z,29.1015,-89.9782,0.0,4.184,238.0,,'11111222,11111222,99999999' 
WAVCIS,ioos:station:WAVCIS:CSI09:1,2015-09-05T03:00:00Z,29.1015,-89.9782,0.0,4.456,235.0,,'11111222,11111222,99999999' 
WAVCIS,ioos:station:WAVCIS:CSI09:1,2015-09-05T04:00:00Z,29.1015,-89.9782,0.0,3.977,241.0,,'11111222,11111222,99999999' 
WAVCIS,ioos:station:WAVCIS:CSI09:1,2015-09-05T05:00:00Z,29.1015,-89.9782,0.0,3.296,236.0,,'11111222,11111222,99999999' 
WAVCIS,ioos:station:WAVCIS:CSI09:1,2015-09-05T06:00:00Z,29.1015,-89.9782,0.0,3.94,277.0,,'11111222,11111222,99999999' 
WAVCIS,ioos:station:WAVCIS:CSI09:1,2015-09-05T07:00:00Z,29.1015,-89.9782,0.0,3.296,168.0,,'11111222,11111222,99999999' 
WAVCIS,ioos:station:WAVCIS:CSI09:1,2015-09-05T08:00:00Z,29.1015,-89.9782,0.0,2.332,185.0,,'11111222,11111222,99999999' 
WAVCIS,ioos:station:WAVCIS:CSI09:1,2015-09-05T09:00:00Z,29.1015,-89.9782,0.0,4.523,282.0,,'11111222,11111222,99999999' 
WAVCIS,ioos:station:WAVCIS:CSI09:1,2015-09-05T10:00:00Z,29.1015,-89.9782,0.0,3.36,224.0,,'11111222,11111222,99999999' 
WAVCIS,ioos:station:WAVCIS:CSI09:1,2015-09-05T11:00:00Z,29.1015,-89.9782,0.0,3.624,245.0,,'11111222,11111222,99999999' 
WAVCIS,ioos:station:WAVCIS:CSI09:1,2015-09-05T12:00:00Z,29.1015,-89.9782,0.0,5.368,271.0,,'11111222,11111222,99999999' 
WAVCIS,ioos:station:WAVCIS:CSI09:1,2015-09-05T13:00:00Z,29.1015,-89.9782,0.0,2.673,267.0,,'11111222,11111222,99999999' 
WAVCIS,ioos:station:WAVCIS:CSI09:1,2015-09-05T14:00:00Z,29.1015,-89.9782,0.0,3.926,284.0,,'11111222,11111222,99999999' 
WAVCIS,ioos:station:WAVCIS:CSI09:1,2015-09-05T15:00:00Z,29.1015,-89.9782,0.0,7.56,291.0,,'11111222,11111222,99999999' 
WAVCIS,ioos:station:WAVCIS:CSI09:1,2015-09-05T16:00:00Z,29.1015,-89.9782,0.0,6.705,302.0,,'11111222,11111222,99999999' 
WAVCIS,ioos:station:WAVCIS:CSI09:1,2015-09-05T17:00:00Z,29.1015,-89.9782,0.0,2.618,284.0,,'11111222,11111222,99999999' 
WAVCIS,ioos:station:WAVCIS:CSI09:1,2015-09-05T18:00:00Z,29.1015,-89.9782,0.0,3.875,292.0,,'11111222,11111222,99999999' 
WAVCIS,ioos:station:WAVCIS:CSI09:1,2015-09-05T19:00:00Z,29.1015,-89.9782,0.0,1.862,310.0,,'11111222,11111222,99999999' 
WAVCIS,ioos:station:WAVCIS:CSI09:1,2015-09-05T20:00:00Z,29.1015,-89.9782,0.0,0.78,249.0,,'11111222,11111222,99999999' 
WAVCIS,ioos:station:WAVCIS:CSI09:1,2015-09-05T21:00:00Z,29.1015,-89.9782,0.0,1.827,239.0,,'11111222,11111222,99999999' 
WAVCIS,ioos:station:WAVCIS:CSI09:1,2015-09-05T22:00:00Z,29.1015,-89.9782,0.0,4.519,226.0,,'11111222,11111222,99999999' 
WAVCIS,ioos:station:WAVCIS:CSI09:1,2015-09-05T23:00:00Z,29.1015,-89.9782,0.0,6.83,247.0,,'11111222,11111222,99999999' 
WAVCIS,ioos:station:WAVCIS:CSI09:1,2015-09-06T00:00:00Z,29.1015,-89.9782,0.0,6.721,270.0,,'11111222,11111222,99999999' 
WAVCIS,ioos:station:WAVCIS:CSI09:1,2015-09-06T01:00:00Z,29.1015,-89.9782,0.0,3.498,286.0,,'11111222,11111222,99999999' 
WAVCIS,ioos:station:WAVCIS:CSI09:1,2015-09-06T02:00:00Z,29.1015,-89.9782,0.0,5.477,293.0,,'11111222,11111222,99999999' 
WAVCIS,ioos:station:WAVCIS:CSI09:1,2015-09-07T23:00:00Z,29.1015,-89.9782,0.0,3.6,80.0,5.7,'11111222,11111222,11111222' 
WAVCIS,ioos:station:WAVCIS:CSI09:1,2015-09-08T00:00:00Z,29.1015,-89.9782,0.0,4.1,90.0,5.1,'11111222,11111222,11111222' 
WAVCIS,ioos:station:WAVCIS:CSI09:1,2015-09-08T01:00:00Z,29.1015,-89.9782,0.0,3.6,90.0,5.1,'11111222,11111222,11111222' 
WAVCIS,ioos:station:WAVCIS:CSI09:1,2015-09-08T02:00:00Z,29.1015,-89.9782,0.0,3.1,90.0,4.6,'11111222,11111222,11111222' 
WAVCIS,ioos:station:WAVCIS:CSI09:1,2015-09-08T03:00:00Z,29.1015,-89.9782,0.0,3.6,110.0,5.1,'11111222,11111222,11111222' 
WAVCIS,ioos:station:WAVCIS:CSI09:1,2015-09-08T04:00:00Z,29.1015,-89.9782,0.0,4.1,130.0,5.1,'11111222,11111222,11111222' 
WAVCIS,ioos:station:WAVCIS:CSI09:1,2015-09-08T05:00:00Z,29.1015,-89.9782,0.0,3.1,130.0,4.1,'11111222,11111222,11111222' 
WAVCIS,ioos:station:WAVCIS:CSI09:1,2015-09-08T06:00:00Z,29.1015,-89.9782,0.0,2.6,130.0,3.6,'11111222,11111222,11111222' 
WAVCIS,ioos:station:WAVCIS:CSI09:1,2015-09-08T07:00:00Z,29.1015,-89.9782,0.0,1.5,120.0,2.6,'11111222,11111222,11111222' 
WAVCIS,ioos:station:WAVCIS:CSI09:1,2015-09-08T08:00:00Z,29.1015,-89.9782,0.0,1.5,120.0,2.1,'11111222,11111222,11111222' 
WAVCIS,ioos:station:WAVCIS:CSI09:1,2015-09-08T09:00:00Z,29.1015,-89.9782,0.0,1.0,70.0,2.1,'11111222,11111222,11111222' 
WAVCIS,ioos:station:WAVCIS:CSI09:1,2015-09-08T10:00:00Z,29.1015,-89.9782,0.0,1.0,60.0,1.5,'11111222,11111222,11111222' 
WAVCIS,ioos:station:WAVCIS:CSI09:1,2015-09-08T11:00:00Z,29.1015,-89.9782,0.0,2.1,70.0,2.6,'11111222,11111222,11111222' 
WAVCIS,ioos:station:WAVCIS:CSI09:1,2015-09-08T12:00:00Z,29.1015,-89.9782,0.0,1.0,30.0,1.5,'11111222,11111222,11111222' 
WAVCIS,ioos:station:WAVCIS:CSI09:1,2015-09-08T13:00:00Z,29.1015,-89.9782,0.0,2.6,30.0,3.6,'11111222,11111222,11111222' 
WAVCIS,ioos:station:WAVCIS:CSI09:1,2015-09-08T14:00:00Z,29.1015,-89.9782,0.0,3.325,53.0,,'11111222,11111222,99999999' 
WAVCIS,ioos:station:WAVCIS:CSI09:1,2015-09-08T15:00:00Z,29.1015,-89.9782,0.0,4.273,50.0,,'11111222,11111222,99999999' 
WAVCIS,ioos:station:WAVCIS:CSI09:1,2015-09-08T16:00:00Z,29.1015,-89.9782,0.0,3.002,71.0,,'11111222,11111222,99999999' 
WAVCIS,ioos:station:WAVCIS:CSI09:1,2015-09-08T17:00:00Z,29.1015,-89.9782,0.0,3.148,77.0,,'11111222,11111222,99999999' 
WAVCIS,ioos:station:WAVCIS:CSI09:1,2015-09-08T18:00:00Z,29.1015,-89.9782,0.0,2.43,104.0,,'11111222,11111222,99999999' 
WAVCIS,ioos:station:WAVCIS:CSI09:1,2015-09-08T19:00:00Z,29.1015,-89.9782,0.0,3.478,125.0,,'11111222,11111222,99999999' 
WAVCIS,ioos:station:WAVCIS:CSI09:1,2015-09-08T20:00:00Z,29.1015,-89.9782,0.0,3.648,134.0,,'11111222,11111222,99999999' 
WAVCIS,ioos:station:WAVCIS:CSI09:1,2015-09-08T21:00:00Z,29.1015,-89.9782,0.0,3.375,140.0,,'11111222,11111222,99999999' 
WAVCIS,ioos:station:WAVCIS:CSI09:1,2015-09-08T22:00:00Z,29.1015,-89.9782,0.0,2.555,131.0,,'11111222,11111222,99999999' 
WAVCIS,ioos:station:WAVCIS:CSI09:1,2015-09-08T23:00:00Z,29.1015,-89.9782,0.0,3.323,131.0,,'11111222,11111222,99999999' 
WAVCIS,ioos:station:WAVCIS:CSI09:1,2015-09-09T00:00:00Z,29.1015,-89.9782,0.0,4.931,152.0,,'11111222,11111222,99999999' 
WAVCIS,ioos:station:WAVCIS:CSI09:1,2015-09-09T01:00:00Z,29.1015,-89.9782,0.0,4.629,159.0,,'11111222,11111222,99999999' 
WAVCIS,ioos:station:WAVCIS:CSI09:1,2015-09-09T02:00:00Z,29.1015,-89.9782,0.0,5.134,160.0,,'11111222,11111222,99999999' 
WAVCIS,ioos:station:WAVCIS:CSI09:1,2015-09-09T03:00:00Z,29.1015,-89.9782,0.0,5.849,163.0,,'11111222,11111222,99999999' 
WAVCIS,ioos:station:WAVCIS:CSI09:1,2015-09-09T04:00:00Z,29.1015,-89.9782,0.0,6.11,168.0,,'11111222,11111222,99999999' 
WAVCIS,ioos:station:WAVCIS:CSI09:1,2015-09-09T05:00:00Z,29.1015,-89.9782,0.0,6.413,173.0,,'11111222,11111222,99999999' 
WAVCIS,ioos:station:WAVCIS:CSI09:1,2015-09-09T06:00:00Z,29.1015,-89.9782,0.0,5.457,173.0,,'11111222,11111222,99999999' 
WAVCIS,ioos:station:WAVCIS:CSI09:1,2015-09-09T07:00:00Z,29.1015,-89.9782,0.0,5.336,175.0,,'11111222,11111222,99999999' 
WAVCIS,ioos:station:WAVCIS:CSI09:1,2015-09-09T08:00:00Z,29.1015,-89.9782,0.0,3.753,184.0,,'11111222,11111222,99999999' 
WAVCIS,ioos:station:WAVCIS:CSI09:1,2015-09-09T09:00:00Z,29.1015,-89.9782,0.0,3.223,188.0,,'11111222,11111222,99999999' 
WAVCIS,ioos:station:WAVCIS:CSI09:1,2015-09-09T10:00:00Z,29.1015,-89.9782,0.0,4.38,228.0,,'11111222,11111222,99999999' 
WAVCIS,ioos:station:WAVCIS:CSI09:1,2015-09-09T11:00:00Z,29.1015,-89.9782,0.0,2.526,346.0,,'11111222,11111222,99999999' 
WAVCIS,ioos:station:WAVCIS:CSI09:1,2015-09-09T12:00:00Z,29.1015,-89.9782,0.0,3.832,222.0,,'11111222,11111222,99999999' 
WAVCIS,ioos:station:WAVCIS:CSI09:1,2015-09-09T13:00:00Z,29.1015,-89.9782,0.0,2.622,101.0,,'11111222,11111222,99999999' 
WAVCIS,ioos:station:WAVCIS:CSI09:1,2015-09-09T14:00:00Z,29.1015,-89.9782,0.0,4.767,155.0,,'11111222,11111222,99999999' 
WAVCIS,ioos:station:WAVCIS:CSI09:1,2015-09-09T15:00:00Z,29.1015,-89.9782,0.0,2.946,144.0,,'11111222,11111222,99999999' 
WAVCIS,ioos:station:WAVCIS:CSI09:1,2015-09-09T16:00:00Z,29.1015,-89.9782,0.0,4.153,165.0,,'11111222,11111222,99999999' 
WAVCIS,ioos:station:WAVCIS:CSI09:1,2015-09-09T17:00:00Z,29.1015,-89.9782,0.0,4.696,173.0,,'11111222,11111222,99999999' 
WAVCIS,ioos:station:WAVCIS:CSI09:1,2015-09-09T18:00:00Z,29.1015,-89.9782,0.0,5.391,204.0,,'11111222,11111222,99999999' 
WAVCIS,ioos:station:WAVCIS:CSI09:1,2015-09-09T19:00:00Z,29.1015,-89.9782,0.0,3.831,212.0,,'11111222,11111222,99999999' 
WAVCIS,ioos:station:WAVCIS:CSI09:1,2015-09-09T20:00:00Z,29.1015,-89.9782,0.0,4.786,310.0,,'11111222,11111222,99999999' 
WAVCIS,ioos:station:WAVCIS:CSI09:1,2015-09-09T21:00:00Z,29.1015,-89.9782,0.0,2.439,285.0,,'11111222,11111222,99999999' 
WAVCIS,ioos:station:WAVCIS:CSI09:1,2015-09-09T22:00:00Z,29.1015,-89.9782,0.0,1.924,194.0,,'11111222,11111222,99999999' 
WAVCIS,ioos:station:WAVCIS:CSI09:1,2015-09-09T23:00:00Z,29.1015,-89.9782,0.0,3.92,221.0,,'11111222,11111222,99999999' 
WAVCIS,ioos:station:WAVCIS:CSI09:1,2015-09-10T00:00:00Z,29.1015,-89.9782,0.0,4.645,236.0,,'11111222,11111222,99999999' 
WAVCIS,ioos:station:WAVCIS:CSI09:1,2015-09-10T01:00:00Z,29.1015,-89.9782,0.0,5.114,234.0,,'11111222,11111222,99999999' 
WAVCIS,ioos:station:WAVCIS:CSI09:1,2015-09-10T02:00:00Z,29.1015,-89.9782,0.0,7.27,232.0,,'11111222,11111222,99999999' 
WAVCIS,ioos:station:WAVCIS:CSI09:1,2015-09-10T03:00:00Z,29.1015,-89.9782,0.0,5.683,215.0,,'11111222,11111222,99999999' 
WAVCIS,ioos:station:WAVCIS:CSI09:1,2015-09-10T04:00:00Z,29.1015,-89.9782,0.0,8.34,229.0,,'11111222,11111222,99999999' 
WAVCIS,ioos:station:WAVCIS:CSI09:1,2015-09-10T05:00:00Z,29.1015,-89.9782,0.0,7.51,226.0,,'11111222,11111222,99999999' 
WAVCIS,ioos:station:WAVCIS:CSI09:1,2015-09-10T06:00:00Z,29.1015,-89.9782,0.0,8.37,234.0,,'11111222,11111222,99999999' 
WAVCIS,ioos:station:WAVCIS:CSI09:1,2015-09-10T07:00:00Z,29.1015,-89.9782,0.0,8.59,243.0,,'11111222,11111222,99999999' 
WAVCIS,ioos:station:WAVCIS:CSI09:1,2015-09-10T08:00:00Z,29.1015,-89.9782,0.0,7.53,257.0,,'11111222,11111222,99999999' 
WAVCIS,ioos:station:WAVCIS:CSI09:1,2015-09-10T09:00:00Z,29.1015,-89.9782,0.0,8.54,274.0,,'11111222,11111222,99999999' 
WAVCIS,ioos:station:WAVCIS:CSI09:1,2015-09-10T10:00:00Z,29.1015,-89.9782,0.0,6.743,279.0,,'11111222,11111222,99999999' 
WAVCIS,ioos:station:WAVCIS:CSI09:1,2015-09-10T11:00:00Z,29.1015,-89.9782,0.0,5.88,279.0,,'11111222,11111222,99999999' 
WAVCIS,ioos:station:WAVCIS:CSI09:1,2015-09-10T12:00:00Z,29.1015,-89.9782,0.0,5.176,278.0,,'11111222,11111222,99999999' 
WAVCIS,ioos:station:WAVCIS:CSI09:1,2015-09-10T13:00:00Z,29.1015,-89.9782,0.0,4.336,286.0,,'11111222,11111222,99999999' 
WAVCIS,ioos:station:WAVCIS:CSI09:1,2015-09-10T14:00:00Z,29.1015,-89.9782,0.0,3.017,287.0,,'11111222,11111222,99999999' 
WAVCIS,ioos:station:WAVCIS:CSI09:1,2015-09-10T15:00:00Z,29.1015,-89.9782,0.0,4.434,269.0,,'11111222,11111222,99999999' 
WAVCIS,ioos:station:WAVCIS:CSI09:1,2015-09-10T16:00:00Z,29.1015,-89.9782,0.0,7.62,276.0,,'11111222,11111222,99999999' 
WAVCIS,ioos:station:WAVCIS:CSI09:1,2015-09-10T17:00:00Z,29.1015,-89.9782,0.0,10.77,277.0,,'11111222,11111222,99999999' 
WAVCIS,ioos:station:WAVCIS:CSI09:1,2015-09-10T18:00:00Z,29.1015,-89.9782,0.0,7.96,320.0,,'11111222,11111222,99999999' 
WAVCIS,ioos:station:WAVCIS:CSI09:1,2015-09-10T19:00:00Z,29.1015,-89.9782,0.0,6.533,299.0,,'11111222,11111222,99999999' 
WAVCIS,ioos:station:WAVCIS:CSI09:1,2015-09-10T20:00:00Z,29.1015,-89.9782,0.0,5.782,264.0,,'11111222,11111222,99999999' 
WAVCIS,ioos:station:WAVCIS:CSI09:1,2015-09-10T21:00:00Z,29.1015,-89.9782,0.0,4.263,270.0,,'11111222,11111222,99999999' 
WAVCIS,ioos:station:WAVCIS:CSI09:1,2015-09-10T22:00:00Z,29.1015,-89.9782,0.0,5.474,273.0,,'11111222,11111222,99999999' 
WAVCIS,ioos:station:WAVCIS:CSI09:1,2015-09-10T23:00:00Z,29.1015,-89.9782,0.0,6.187,268.0,,'11111222,11111222,99999999' 
WAVCIS,ioos:station:WAVCIS:CSI09:1,2015-09-11T00:00:00Z,29.1015,-89.9782,0.0,6.291,270.0,,'11111222,11111222,99999999' 
WAVCIS,ioos:station:WAVCIS:CSI09:1,2015-09-11T01:00:00Z,29.1015,-89.9782,0.0,5.981,270.0,,'11111222,11111222,99999999' 
WAVCIS,ioos:station:WAVCIS:CSI09:1,2015-09-11T02:00:00Z,29.1015,-89.9782,0.0,4.799,271.0,,'11111222,11111222,99999999' 